Location: Altenst�hlen
(53.5567°N, 8.9425°E)
Time: 19:38:55
(UTC+00:00)

CZ-2D R/B - Pass Details

Date: 23 October 2019
Orbit: 522 x 538 km, 97.4° (Epoch: 18 November)

Event Time Altitude Azimuth Distance (km) Brightness Sun altitude
Rises 17:32:21 0° 150° (SSE) 2,674 6.6 -12.7°
Reaches altitude 10° 17:34:29 10° 145° (SE) 1,790 5.6 -13.0°
Maximum altitude 17:38:14 50° 70° (ENE) 696 3.4 -13.6°
Drops below altitude 10° 17:42:01 10° 355° (N) 1,811 6.0 -14.2°
Sets 17:44:11 0° 350° (N) 2,709 7.0 -14.5°
